Location: Unspecified
(0.0000°N, 0.0000°E)
Time: 17:22:46
(UTC+00:00)

STARLINK 1022 - Pass Details

Date: 19 January 2020
Orbit: 549 x 551 km, 53.0° (Epoch: 23 January)

Event Time Altitude Azimuth Distance (km) Brightness Sun altitude
Rises 04:53:26 0° 184° (S) 2,732 7.4 -18.0°
Reaches altitude 10° 04:56:33 10° 159° (SSE) 1,831 6.9 -17.3°
Maximum altitude 04:58:53 15° 125° (SE) 1,556 7.0 -16.7°
Drops below altitude 10° 05:01:11 10° 91° (E) 1,822 7.4 -16.2°
Sets 05:04:16 0° 66° (ENE) 2,710 7.9 -15.5°
